Miscellaneous Local Product
Issued by NWS Hastings, NE

Home | Current Version | Previous Version | Text Only | Print | Product List | Glossary Off
Versions: 1 2 3 4 5 6 7 8 9 10 11 12 13 14 15 16 17 18 19 20 21 22 23 24 25 26 27 28 29 30 31 32 33 34 35 36 37 38 39 40 41 42 43 44 45 46 47 48 49 50

000
AXUS43 KGID 020202
MISGRI

GID CWA HOURLY WEATHER ROUNDUP
NATIONAL WEATHER SERVICE HASTINGS NE
900 PM CDT TUE SEP 01 2015

NOTE: "FAIR" INDICATES FEW OR NO CLOUDS BELOW 12,000 FEET WITH NO
SIGNIFICANT WEATHER AND/OR OBSTRUCTIONS TO VISIBILITY.

...SOUTH CENTRAL NEBRASKA...

CITY           SKY/WX    TMP DP  RH WIND       PRES   REMARKS
GRAND ISLAND   CLEAR     79  67  66 S7        29.89R
HASTINGS       CLEAR     82  65  56 SE9       29.89R
KEARNEY        CLEAR     79  63  57 CALM      29.89R
ORD            CLEAR     75  65  70 S3        29.86R
YORK           PTCLDY    77  66  69 S10       29.88S
AURORA         PTCLDY    76  67  74 S6        29.89R
LEXINGTON      CLEAR     79  67  65 SE7       29.89S
HOLDREGE       CLEAR     75  64  67 SE6       29.89R
HEBRON         PTCLDY    83  62  48 S12G20    29.88S

...NEBRASKA PANHANDLE...

CITY           SKY/WX    TMP DP  RH WIND       PRES   REMARKS
CHADRON        CLEAR     76  48  37 S5        29.84R
ALLIANCE       CLEAR     70  47  43 S8        29.91R
SCOTTSBLUFF    CLEAR     73  56  54 E7        29.92R
SIDNEY         CLEAR     71  40  32 S8        29.97R

...WESTERN AND NORTH CENTRAL NEBRASKA...

CITY           SKY/WX    TMP DP  RH WIND       PRES   REMARKS
VALENTINE      CLEAR     81  60  48 S14       29.84R
AINSWORTH      CLEAR     74  63  67 SE7       29.87R
ONEILL         CLEAR     78  68  72 SE6       29.86S
BROKEN BOW     CLEAR     79  65  62 SE6       29.89R
IMPERIAL       CLEAR     74  55  51 S6        29.92R
NORTH PLATTE   CLEAR     72  67  84 E8        29.89R
MCCOOK         CLEAR     81  58  45 E5        29.90R

...EASTERN NEBRASKA...

CITY           SKY/WX    TMP DP  RH WIND       PRES   REMARKS
NORFOLK        CLEAR     77  68  73 SE8       29.87R
SO SIOUX CITY  PTCLDY    78  72  81 SE8       29.87R
TEKAMAH        PTCLDY    77  72  84 SE9       29.88R
COLUMBUS       CLEAR     77  63  61 S6        29.87R
ALBION         CLEAR     76  69  78 SE5       29.88R
OMAHA EPPLEY   MOCLDY    81  68  64 SE14      29.90R
OFFUTT AFB     MOCLDY    79  69  71 SE9       29.90R
MILLARD        MOCLDY    81  69  67 SE9       29.89R
LINCOLN        MOCLDY    83  64  52 S14       29.88S
NEBRASKA CITY  MOCLDY    80  61  53 S15G21    29.93R
BEATRICE       MOCLDY    82  65  56 SE13G20   29.91R
FALLS CITY     PTCLDY    77  67  71 SE9       29.94S

...NORTHERN KANSAS...

CITY           SKY/WX    TMP DP  RH WIND       PRES   REMARKS
GOODLAND       MOCLDY    78  59  51 S15G24    29.98R THUNDER
HILL CITY      PTCLDY    84  57  39 SW5       29.90R
NORTON         CLEAR     79  54  41 CALM      29.89R
PHILLIPSBURG   CLEAR     86  57  37 CALM      29.88R
SMITH CENTER   CLEAR     79  61  53 SE8       29.88R
HAYS           PTCLDY    86  57  37 S13       29.90R
RUSSELL        PTCLDY    88  60  38 S17       29.88R
CONCORDIA      PTCLDY    82  64  54 S18G25    29.90R
SALINA         CLEAR     85  64  49 SE16      29.92R
TOPEKA         CLEAR     79  66  64 SE9       29.98R



USA.gov is the U.S. government's official web portal to all federal, state and local government web resources and services.